Location: Beacon Field Observatory
(38.7700°N, 77.0829°W)
Time: 01:35:58
(UTC-05:00)

UKube-1 - Pass Details

Date: 08 December 2019
Orbit: 614 x 618 km, 98.5° (Epoch: 20 January)

Event Time Altitude Azimuth Distance (km) Brightness Sun altitude
Rises 18:49:56 0° 353° (N) 2,897 ? -23.4°
Reaches altitude 10° 18:52:52 10° 332° (NNW) 1,987 ? -23.9°
Maximum altitude 18:55:26 16° 295° (WNW) 1,640 ? -24.4°
Drops below altitude 10° 18:57:59 10° 258° (WSW) 1,980 ? -24.9°
Sets 19:00:55 0° 237° (WSW) 2,881 ? -25.5°
